Regional Weather Roundup
Issued by NWS State College, PA

Home | Current Version | Previous Version | Graphics & Text | Print | Product List | Glossary Off
Versions: 1 2 3 4 5 6 7 8 9 10 11 12 13 14 15 16 17 18 19 20 21 22 23 24 25 26 27 28 29 30 31 32 33 34 35 36 37 38 39 40 41 42 43 44 45 46 47 48 49 50

000
ASUS41 KCTP 010110
RWRCTP

REGIONAL WEATHER ROUNDUP
NATIONAL WEATHER SERVICE STATE COLLEGE PA
900 PM EDT TUE SEP 30 2014

Note: "fair" indicates few or no clouds below 12,000 feet with no
significant weather and/or obstructions to visibility.

* = STATION THAT DOES NOT REPORT PRECIPITATION /E.G. RAIN...SNOW...ETC/
    THUNDER OR FOG.

PAZ002>004-007>009-013>016-020>023-029>032-010200-
WESTERN PENNSYLVANIA

CITY           SKY/WX    TMP DP  RH WIND       PRES   REMARKS
ERIE           FAIR      62  55  77 CALM      29.96R
MEADVILLE      MOCLDY    57  54  89 N6        29.97R
FRANKLIN*      CLOUDY    57  54  88 N8        29.97S
NEW CASTLE       N/A     59  57  92 CALM      29.97R
BEAVER COUNTY  CLOUDY    57  55  94 N7        29.96
BUTLER*        FAIR      59  54  82 CALM      29.96R
PITTSBURGH INT TSTM      58  56  93 W6        29.94R FOG
PITTSBURGH     CLOUDY    63  54  72 CALM      29.93R
INDIANA*       CLOUDY    59  55  88 E3        29.98R
LATROBE        MOCLDY    57  57 100 CALM      29.95
WASHINGTON CO* MOCLDY    57  54  88 CALM      29.95R
$$

PAZ004>006-010>012-017>019-024>028-033>037-041-042-045-046-049>053-010200-
CENTRAL PENNSYLVANIA

CITY           SKY/WX    TMP DP  RH WIND       PRES   REMARKS
BRADFORD       CLOUDY    58  53  84 NW5       29.96F
DUBOIS         CLOUDY    58  54  86 NW3       29.94S
CLEARFIELD     FAIR      59  57  93 NW3       29.95R
JOHNSTOWN      MOCLDY    59  51  75 CALM      29.96R
ALTOONA        FAIR      59  58  96 CALM      29.95S FOG
STATE COLLEGE  CLEAR     59  57  94 CALM      29.95R FOG
WILLIAMSPORT   FAIR      64  59  83 E5        29.91R
SELINSGROVE    FAIR      67  62  84 CALM      29.92R THUNDER
FT INDIANTOWN  MOCLDY    65  64  99 NE2       29.93R
CAPITAL CITY   MOCLDY    66  61  84 S3        29.92R
HARRISBURG     CLOUDY    67  62  84 CALM      29.91R
YORK           MOCLDY    65  60  84 CALM      29.92R
$$

PAZ038>040-043-044-047-048-054-055-060>062-067>071-010200-
EASTERN PENNSYLVANIA

CITY           SKY/WX    TMP DP  RH WIND       PRES   REMARKS
SCRANTON       CLOUDY    66  55  67 E5        29.95R
MOUNT POCONO   CLOUDY    60  55  83 SE3       29.99R
ALLENTOWN      LGT RAIN  65  57  75 E9        29.96R
QUAKERTOWN*    MOCLDY    64  57  77 E5        29.97R
READING        CLOUDY    69  58  67 SE8       29.93R
LANCASTER      CLOUDY    67  59  75 E3        29.93R
COATESVILLE    MOCLDY    66  59  77 E8        29.96R
POTTSTOWN      FAIR      65  57  75 VRB5      29.97R
BLUE BELL      FAIR      64  59  82 E5        29.95R
DOYLESTOWN     FAIR      62  58  86 CALM      29.96R
WILLOW GROVE   NOT AVBL
NORTH PHILA    FAIR      66  57  72 E9        29.97R
PHILADELPHIA   MOCLDY    66  59  78 E6        29.96R
$$


USA.gov is the U.S. government's official web portal to all federal, state and local government web resources and services.